User: anonymous   Login
Location: Caltech
(34.1382°N, 118.1253°W)
Time: 13:46:04
(UTC-07:00)
Language:

GPS 2-04 Rocket1 - Orbit

View from above orbital plane
View from above orbital plane
View from above satellite
View from above satellite

Ground track
Ground track

The orbit data is extracted from the following two-line orbital elements,

1 20303U 89085B   17295.48066661  .00003323  00000-0  11601-3 0  9992
2 20303  35.6314 324.2207 0106011 217.7159 141.6099 15.24041197519978
Epoch (UTC): 22 October 2017 11:32:09
Eccentricity: 0.0106011
inclination: 35.6314°
perigee height: 421 km
apogee height: 566 km
right ascension of ascending node: 324.2207°
argument of perigee: 217.7159°
revolutions per day: 15.24041197
mean anomaly at epoch: 141.6099°
orbit number at epoch: 51997

The dashed part of the orbit path shows where the satellite is in the earth's shadow,  

DLR